Home   Weather   Munich   Past weeks
Flag for Germany

Past Weather in Munich, Bavaria, Germany — Yesterday and Last 2 Weeks

Now
64 °F

Sunny.


Feels Like: 64 °F
Forecast: 69 / 52 °F
Wind: 2 mph from North

Location: Oberpfaffenhofen

Current Time: May 25, 2019 at 11:09:58 am

Latest Report: May 25, 2019 at 10:20 am


Visibility: 10 mi

Pressure: 30.01 "Hg (28.21 "Hg at 526m altitude)

Humidity: 56%

Dew Point: 48 °F

Location of MunichLocation

Past Weather in Munich — Graph

°F

Munich Temperature Yesterday

Maximum temperature yesterday: 68 °F (at 2:50 pm)
Minimum temperature yesterday: 39 °F (at 4:20 am)
Average temperature yesterday: 55 °F

High & Low Weather Summary for the Past Weeks

 TemperatureHumidityPressure
High70 °F (May 19, 3:50 pm)100% (May 12, 2:50 am)30.48 "Hg (May 12, 2:50 am)
Low34 °F (May 14, 3:50 am)37% (May 18, 6:20 pm)29.56 "Hg (May 19, 4:50 pm)
Average50 °F78%29.97 "Hg
* Reported May 10 9:20 am — May 25 9:50 am, Munich. Weather by CustomWeather, © 2019

Note: Actual official high and low records may vary slightly from our data, if they occured in-between our weather recording intervals... More about our weather records

Advertising

Munich Weather History for the Previous 24 Hours

Scroll right to see more
 ConditionsComfort  
Time TempWeatherWind HumidityBarometerVisibility
9:50 am
Sat, May 25
63 °FPassing clouds.5 mph64%29.98 "HgN/A
9:20 am59 °FSunny.5 mph68%29.98 "Hg10 mi
8:50 am57 °FPassing clouds.6 mph72%29.98 "HgN/A
8:20 am55 °FSunny.7 mph77%29.98 "Hg10 mi
7:50 am54 °FPartly sunny.6 mph82%29.98 "HgN/A
7:20 am54 °FPartly sunny.7 mph82%29.98 "HgN/A
6:50 am50 °FSunny.2 mph94%29.98 "HgN/A
6:20 am45 °FSunny.3 mph100%29.95 "HgN/A
5:50 am43 °FSunny.3 mph100%29.95 "HgN/A
5:20 am43 °FClear.5 mph93%29.95 "HgN/A
4:50 am46 °FPassing clouds.3 mph93%29.95 "HgN/A
4:20 am46 °FPassing clouds.3 mph93%29.95 "HgN/A
3:50 am43 °FPassing clouds.5 mph87%29.95 "HgN/A
3:20 am45 °FPassing clouds.2 mph93%29.95 "HgN/A
2:50 am46 °FClear.5 mph87%29.95 "HgN/A
1:50 am48 °FPassing clouds.5 mph87%29.98 "HgN/A
1:20 am48 °FPassing clouds.3 mph94%29.98 "HgN/A
12:50 am48 °FOvercast.5 mph94%29.98 "HgN/A
12:20 am50 °FOvercast.3 mph88%29.98 "HgN/A
11:50 pm
Fri, May 24
50 °FOvercast.No wind94%29.98 "HgN/A
11:20 pm52 °FOvercast.2 mph88%29.98 "HgN/A
10:50 pm54 °FOvercast.2 mph82%29.98 "HgN/A
10:20 pm54 °FPassing clouds.5 mph82%29.98 "HgN/A
9:50 pm55 °FPassing clouds.2 mph77%29.95 "HgN/A
9:20 pm57 °FClear.2 mph72%29.95 "HgN/A
8:50 pm59 °FSunny.1 mph63%29.95 "Hg10 mi
7:50 pm63 °FSunny.5 mph52%29.95 "Hg10 mi
7:20 pm64 °FPassing clouds.5 mph46%29.95 "HgN/A
6:50 pm64 °FSunny.8 mph49%29.95 "Hg10 mi
6:20 pm68 °FPassing clouds.6 mph40%29.95 "HgN/A
5:50 pm68 °FPassing clouds.6 mph40%29.95 "HgN/A
5:20 pm68 °FPassing clouds.8 mph40%29.95 "HgN/A
4:50 pm68 °FPassing clouds.7 mph40%29.95 "HgN/A
4:20 pm68 °FPassing clouds.7 mph40%29.95 "HgN/A
3:50 pm68 °FSunny.2 mph43%29.98 "Hg10 mi
3:20 pm68 °FSunny.6 mph46%29.98 "Hg10 mi
2:50 pm68 °FPassing clouds.7 mph43%29.98 "HgN/A
2:20 pm66 °FPassing clouds.7 mph43%29.98 "HgN/A
1:50 pm66 °FPassing clouds.6 mph46%29.98 "HgN/A
1:20 pm66 °FPassing clouds.7 mph43%29.98 "HgN/A
12:50 pm64 °FSunny.2 mph46%30.01 "Hg10 mi
12:20 pm64 °FPassing clouds.5 mph49%30.01 "HgN/A
11:50 am63 °FPassing clouds.6 mph52%30.01 "HgN/A
11:20 am63 °FSunny.6 mph52%30.01 "Hg10 mi
Weather by CustomWeather, © 2019

See weather overview